This is the latest recevied weather packets stored in our database for station/object K1JO. If no packets are shown the sender has not sent any weather packets the latest 10 day(s).
| Time | Temp. | Humidity | Pressure | Rain* | Wind** | Luminosity | Snow |
|---|---|---|---|---|---|---|---|
| 1777943434 | 7.78° C | 96% | 1003.6 hPa | 0 mm | - | 0 W/m² | - |
| 1777943129 | 7.78° C | 95% | 1003.5 hPa | 0 mm | - | 0 W/m² | - |
| 1777942826 | 7.78° C | 95% | 1003.4 hPa | 0 mm | - | 0 W/m² | - |
| 1777942523 | 7.78° C | 94% | 1003 hPa | 0 mm | - | 0 W/m² | - |
| 1777942221 | 8.33° C | 94% | 1003.1 hPa | 0 mm | - | 0 W/m² | - |
| 1777941917 | 8.33° C | 94% | 1002.8 hPa | 0 mm | - | 0 W/m² | - |
| 1777941614 | 8.33° C | 93% | 1002.9 hPa | 0 mm | - | 0 W/m² | - |
| 1777941311 | 8.33° C | 93% | 1002.7 hPa | 0 mm | - | 0 W/m² | - |
| 1777941008 | 8.33° C | 93% | 1002.7 hPa | 0 mm | - | 0 W/m² | - |
| 1777940703 | 8.89° C | 92% | 1002.6 hPa | 0 mm | - | 0 W/m² | - |
| 1777940402 | 8.89° C | 91% | 1002.6 hPa | 0 mm | - | 0 W/m² | - |
| 1777940099 | 9.44° C | 91% | 1002.5 hPa | 0 mm | - | 0 W/m² | - |
| 1777939796 | 9.44° C | 90% | 1002.6 hPa | 0 mm | - | 0 W/m² | - |
| 1777939494 | 9.44° C | 90% | 1002.7 hPa | 0 mm | - | 0 W/m² | - |
| 1777939191 | 10° C | 89% | 1002.6 hPa | 0 mm | - | 0 W/m² | - |
| 1777938888 | 10° C | 87% | 1002.6 hPa | 0 mm | - | 1 W/m² | - |
| 1777938584 | 10° C | 87% | 1002.5 hPa | 0 mm | - | 1 W/m² | - |
| 1777938282 | 10.56° C | 85% | 1002.2 hPa | 0 mm | - | 2 W/m² | - |
| 1777937978 | 10.56° C | 85% | 1002.3 hPa | 0 mm | - | 3 W/m² | - |
| 1777937674 | 10.56° C | 84% | 1002.1 hPa | 0 mm | - | 4 W/m² | - |
| 1777937371 | 11.11° C | 82% | 1002 hPa | 0 mm | - | 6 W/m² | - |
| 1777937068 | 11.67° C | 81% | 1002 hPa | 0 mm | - | 10 W/m² | - |
| 1777936765 | 11.67° C | 79% | 1002.1 hPa | 0 mm | - | 15 W/m² | - |
| 1777936461 | 12.22° C | 77% | 1002 hPa | 0 mm | - | 17 W/m² | - |
| 1777936158 | 12.78° C | 76% | 1002 hPa | 0 mm | - | 20 W/m² | - |
* Rain latest hour (hover to see other rain measurements)
** Current wind speed in m/s (hover to see current wind gust speed)